MAU440 FIMP-YPPH

Flight info

Callsign MAU440
Flight time 6h 12m
Altitude 39000
Route ATLOP2A ATLOP DCT 24S066E 26S072E 29S083E/N0480F410 31S096E 32S107E DCT KAGMI
Aircraft A359/H-SDE2E3GHIJ3J4J5LM1ORWXY/LB1D1

Departure

Time 2026-04-26 23:31
Airport Sir Seewoosagur Ramgoolam International Airport (FIMP)

Arrival

Time 2026-04-27 05:43
Airport Perth International Airport (YPPH)
Time Latitude Longitude Altitude Speed Heading
2026-04-26 22:40 -20.43119 57.67774 199 ft 0 kts 207°
2026-04-26 22:41 -20.43122 57.67772 193 ft 0 kts 207°
2026-04-26 23:21 -20.43119 57.67773 207 ft 3 kts 207°
2026-04-26 23:22 -20.43096 57.67786 203 ft 4 kts 207°
2026-04-26 23:22 -20.43075 57.67798 198 ft 4 kts 216°
2026-04-26 23:22 -20.43058 57.67817 192 ft 4 kts 254°
2026-04-26 23:22 -20.43058 57.67844 192 ft 4 kts 292°
2026-04-26 23:23 -20.43071 57.67869 200 ft 3 kts 298°
2026-04-26 23:23 -20.43072 57.67873 192 ft 0 kts 297°
2026-04-26 23:26 -20.43072 57.67872 191 ft 1 kts 297°
2026-04-26 23:26 -20.43056 57.67839 199 ft 9 kts 297°
2026-04-26 23:26 -20.43017 57.67758 192 ft 15 kts 297°
2026-04-26 23:26 -20.42964 57.67660 191 ft 14 kts 314°
2026-04-26 23:27 -20.42878 57.67607 191 ft 15 kts 332°
2026-04-26 23:27 -20.42792 57.67540 193 ft 16 kts 321°
2026-04-26 23:27 -20.42701 57.67479 195 ft 15 kts 342°
2026-04-26 23:27 -20.42610 57.67448 198 ft 13 kts 341°
2026-04-26 23:28 -20.42555 57.67382 200 ft 13 kts 296°
2026-04-26 23:28 -20.42517 57.67301 202 ft 12 kts 296°
2026-04-26 23:28 -20.42511 57.67221 204 ft 9 kts 287°
2026-04-26 23:28 -20.42490 57.67210 205 ft 1 kts
2026-04-26 23:29 -20.42488 57.67211 205 ft 1 kts 10°
2026-04-26 23:29 -20.42479 57.67224 205 ft 2 kts 63°
2026-04-26 23:29 -20.42486 57.67245 204 ft 5 kts 126°
2026-04-26 23:29 -20.42508 57.67284 203 ft 0 kts 117°
2026-04-26 23:30 -20.42534 57.67336 202 ft 33 kts 117°
2026-04-26 23:30 -20.42745 57.67776 197 ft 98 kts 117°
2026-04-26 23:31 -20.43146 57.68607 182 ft 152 kts 117°
2026-04-26 23:31 -20.43652 57.69661 669 ft 154 kts 114°
2026-04-26 23:31 -20.44137 57.70681 1175 ft 159 kts 113°
2026-04-26 23:31 -20.44668 57.71801 1434 ft 181 kts 115°
2026-04-26 23:32 -20.45284 57.73068 1679 ft 204 kts 115°
2026-04-26 23:32 -20.45883 57.74537 1865 ft 229 kts 104°
2026-04-26 23:32 -20.46291 57.76262 2202 ft 248 kts 100°
2026-04-26 23:32 -20.46656 57.78077 2880 ft 252 kts 100°
2026-04-26 23:33 -20.47021 57.79898 3715 ft 250 kts 101°
2026-04-26 23:33 -20.47391 57.81727 4387 ft 255 kts 101°
2026-04-26 23:33 -20.47770 57.83595 5027 ft 260 kts 101°
2026-04-26 23:33 -20.48156 57.85491 5699 ft 263 kts 101°
2026-04-26 23:34 -20.48544 57.87393 6349 ft 267 kts 101°
2026-04-26 23:34 -20.48943 57.89344 7045 ft 271 kts 101°
2026-04-26 23:34 -20.49345 57.91314 7753 ft 274 kts 101°
2026-04-26 23:34 -20.49753 57.93317 8464 ft 278 kts 101°
2026-04-26 23:35 -20.50166 57.95344 9176 ft 281 kts 101°
2026-04-26 23:35 -20.50585 57.97398 9876 ft 285 kts 101°
2026-04-26 23:35 -20.51013 57.99502 10357 ft 298 kts 101°
2026-04-26 23:35 -20.51466 58.01734 10621 ft 317 kts 101°
2026-04-26 23:36 -20.51948 58.04102 10873 ft 335 kts 102°
2026-04-26 23:36 -20.52453 58.06586 11163 ft 349 kts 102°
2026-04-26 23:36 -20.52973 58.09144 11647 ft 356 kts 102°
2026-04-26 23:36 -20.53500 58.11738 12203 ft 360 kts 102°
2026-04-26 23:37 -20.54032 58.14361 12771 ft 364 kts 102°
2026-04-26 23:37 -20.54570 58.17013 13344 ft 367 kts 102°
2026-04-26 23:37 -20.55113 58.19693 13903 ft 370 kts 102°
2026-04-26 23:37 -20.55653 58.22364 14430 ft 374 kts 102°
2026-04-26 23:38 -20.56205 58.25094 14947 ft 378 kts 102°
2026-04-26 23:38 -20.56764 58.27849 15455 ft 381 kts 103°
2026-04-26 23:38 -20.57539 58.30560 15948 ft 384 kts 114°
2026-04-26 23:38 -20.58728 58.33130 16442 ft 386 kts 119°
2026-04-26 23:39 -20.60017 58.35656 16924 ft 389 kts 119°
2026-04-26 23:39 -20.61326 58.38201 17422 ft 392 kts 120°
2026-04-26 23:39 -20.62640 58.40768 17867 ft 396 kts 119°
2026-04-26 23:39 -20.63960 58.43354 18328 ft 398 kts 120°
2026-04-26 23:40 -20.65289 58.45963 18779 ft 402 kts 120°
2026-04-26 23:40 -20.66609 58.48560 19214 ft 405 kts 120°
2026-04-26 23:40 -20.67958 58.51216 19651 ft 408 kts 120°
2026-04-26 23:40 -20.69314 58.53889 20088 ft 411 kts 120°
2026-04-26 23:41 -20.70682 58.56587 20515 ft 414 kts 120°
2026-04-26 23:41 -20.72058 58.59303 20940 ft 417 kts 120°
2026-04-26 23:41 -20.73445 58.62041 21358 ft 420 kts 120°
2026-04-26 23:41 -20.74842 58.64799 21761 ft 423 kts 120°
2026-04-26 23:42 -20.76248 58.67578 22157 ft 426 kts 120°
2026-04-26 23:42 -20.79083 58.73190 22922 ft 432 kts 120°
2026-04-26 23:42 -20.80515 58.76024 23289 ft 435 kts 120°
2026-04-26 23:43 -20.81957 58.78883 23651 ft 438 kts 120°
2026-04-26 23:43 -20.83406 58.81755 24021 ft 440 kts 120°
2026-04-26 23:43 -20.84864 58.84647 24374 ft 443 kts 120°
2026-04-26 23:43 -20.86329 58.87555 24734 ft 446 kts 120°
2026-04-26 23:44 -20.87789 58.90456 25115 ft 449 kts 121°
2026-04-26 23:44 -20.89274 58.93406 25509 ft 452 kts 121°
2026-04-26 23:44 -20.90768 58.96375 25892 ft 455 kts 121°
2026-04-26 23:44 -20.92268 58.99359 26287 ft 457 kts 121°
2026-04-26 23:45 -20.93780 59.02369 26662 ft 460 kts 121°
2026-04-26 23:45 -20.95301 59.05396 27026 ft 464 kts 121°
2026-04-26 23:45 -20.96831 59.08445 27405 ft 466 kts 121°
2026-04-26 23:45 -20.98369 59.11512 27776 ft 469 kts 121°
2026-04-26 23:46 -20.99917 59.14600 28129 ft 472 kts 121°
2026-04-26 23:46 -21.01473 59.17704 28478 ft 475 kts 121°
2026-04-26 23:46 -21.03039 59.20831 28817 ft 478 kts 121°
2026-04-26 23:46 -21.04612 59.23974 29155 ft 480 kts 121°
2026-04-26 23:47 -21.06190 59.27130 29484 ft 483 kts 121°
2026-04-26 23:47 -21.07780 59.30310 29782 ft 486 kts 121°
2026-04-26 23:47 -21.09379 59.33510 30083 ft 488 kts 121°
2026-04-26 23:47 -21.10982 59.36721 30382 ft 491 kts 121°
2026-04-26 23:48 -21.12597 59.39957 30648 ft 494 kts 121°
2026-04-26 23:48 -21.14223 59.43216 30923 ft 497 kts 121°
2026-04-26 23:48 -21.15854 59.46489 31199 ft 499 kts 121°
2026-04-26 23:48 -21.17493 59.49781 31448 ft 502 kts 121°
2026-04-26 23:49 -21.19143 59.53094 31685 ft 505 kts 121°
2026-04-26 23:49 -21.20801 59.56428 31918 ft 508 kts 121°
2026-04-26 23:49 -21.22468 59.59780 32145 ft 511 kts 121°
2026-04-26 23:49 -21.24143 59.63152 32379 ft 513 kts 121°
2026-04-26 23:50 -21.25823 59.66536 32599 ft 516 kts 121°
2026-04-26 23:50 -21.27512 59.69940 32808 ft 518 kts 121°
2026-04-26 23:50 -21.29206 59.73356 33014 ft 520 kts 121°
2026-04-26 23:50 -21.30885 59.76745 33219 ft 522 kts 121°
2026-04-26 23:51 -21.32593 59.80193 33385 ft 525 kts 122°
2026-04-26 23:51 -21.34309 59.83660 33564 ft 527 kts 121°
2026-04-26 23:51 -21.36030 59.87140 33841 ft 527 kts 122°
2026-04-26 23:51 -21.37746 59.90613 34117 ft 527 kts 122°
2026-04-26 23:52 -21.39467 59.94097 34340 ft 528 kts 122°
2026-04-26 23:52 -21.41187 59.97582 34578 ft 528 kts 122°
2026-04-26 23:52 -21.42904 60.01062 34836 ft 528 kts 122°
2026-04-26 23:52 -21.44623 60.04550 35041 ft 529 kts 122°
2026-04-26 23:53 -21.46346 60.08045 35209 ft 531 kts 122°
2026-04-26 23:53 -21.48061 60.11556 35402 ft 532 kts 121°
2026-04-26 23:53 -21.49713 60.15112 35635 ft 533 kts 120°
2026-04-26 23:53 -21.51326 60.18698 35807 ft 534 kts 119°
2026-04-26 23:54 -21.52928 60.22299 35992 ft 535 kts 119°
2026-04-26 23:54 -21.54535 60.25908 36174 ft 535 kts 119°
2026-04-26 23:54 -21.56145 60.29509 36355 ft 536 kts 120°
2026-04-26 23:54 -21.57767 60.33118 36511 ft 536 kts 120°
2026-04-26 23:55 -21.59395 60.36730 36680 ft 537 kts 120°
2026-04-26 23:55 -21.61005 60.40293 36835 ft 538 kts 120°
2026-04-26 23:55 -21.62639 60.43908 37031 ft 538 kts 120°
2026-04-26 23:55 -21.64275 60.47528 37175 ft 538 kts 120°
2026-04-26 23:56 -21.65910 60.51150 37320 ft 539 kts 120°
2026-04-26 23:56 -21.67545 60.54776 37495 ft 539 kts 120°
2026-04-26 23:56 -21.69182 60.58411 37646 ft 539 kts 119°
2026-04-26 23:56 -21.70816 60.62040 37790 ft 540 kts 120°
2026-04-26 23:57 -21.72452 60.65678 37927 ft 540 kts 119°
2026-04-26 23:57 -21.74085 60.69311 38070 ft 540 kts 119°
2026-04-26 23:57 -21.75718 60.72947 38202 ft 540 kts 119°
2026-04-26 23:57 -21.77356 60.76597 38342 ft 540 kts 119°
2026-04-26 23:58 -21.78992 60.80246 38459 ft 541 kts 119°
2026-04-26 23:58 -21.80076 60.82664 38533 ft 541 kts 119°
2026-04-26 23:58 -21.81711 60.86314 38677 ft 541 kts 119°
2026-04-26 23:58 -21.83343 60.89959 38795 ft 542 kts 119°
2026-04-26 23:59 -21.86617 60.97280 38917 ft 544 kts 119°
2026-04-26 23:59 -21.89905 61.04641 38932 ft 545 kts 119°
2026-04-27 00:00 -21.93186 61.12002 38924 ft 545 kts 119°
2026-04-27 00:00 -21.96462 61.19362 38931 ft 544 kts 119°
2026-04-27 00:01 -21.99708 61.26664 38930 ft 544 kts 119°
2026-04-27 00:01 -22.02969 61.34013 38936 ft 543 kts 119°
2026-04-27 00:02 -22.06225 61.41357 38918 ft 542 kts 119°
2026-04-27 00:02 -22.09474 61.48697 38932 ft 542 kts 119°
2026-04-27 00:03 -22.12719 61.56038 38915 ft 543 kts 119°
2026-04-27 00:03 -22.15945 61.63347 38930 ft 543 kts 119°
2026-04-27 00:04 -22.19188 61.70706 38923 ft 543 kts 119°
2026-04-27 00:04 -22.22430 61.78073 38918 ft 543 kts 119°
2026-04-27 00:05 -22.25664 61.85435 38935 ft 543 kts 119°
2026-04-27 00:05 -22.28898 61.92805 38931 ft 543 kts 119°
2026-04-27 00:06 -22.32129 62.00181 38930 ft 543 kts 119°
2026-04-27 00:06 -22.35357 62.07564 38930 ft 543 kts 119°
2026-04-27 00:07 -22.38584 62.14950 38937 ft 543 kts 118°
2026-04-27 00:07 -22.41780 62.22278 38932 ft 542 kts 118°
2026-04-27 00:08 -22.44995 62.29661 38936 ft 542 kts 118°
2026-04-27 00:08 -22.48201 62.37035 38930 ft 541 kts 118°
2026-04-27 00:09 -22.51403 62.44409 38936 ft 541 kts 118°
2026-04-27 00:09 -22.54599 62.51783 38938 ft 541 kts 118°
2026-04-27 00:10 -22.57785 62.59145 38936 ft 540 kts 118°
2026-04-27 00:10 -22.60947 62.66461 38932 ft 539 kts 118°
2026-04-27 00:11 -22.64120 62.73815 38938 ft 539 kts 118°
2026-04-27 00:11 -22.67287 62.81164 38938 ft 539 kts 118°
2026-04-27 00:12 -22.70453 62.88522 38930 ft 538 kts 118°
2026-04-27 00:12 -22.73609 62.95870 38930 ft 538 kts 118°
2026-04-27 00:13 -22.76757 63.03213 38939 ft 537 kts 118°
2026-04-27 00:13 -22.79903 63.10560 38939 ft 537 kts 117°
2026-04-27 00:14 -22.83041 63.17900 38938 ft 537 kts 117°
2026-04-27 00:14 -22.86178 63.25246 38931 ft 536 kts 117°
2026-04-27 00:15 -22.89308 63.32588 38932 ft 536 kts 117°
2026-04-27 00:15 -22.92433 63.39931 38937 ft 536 kts 118°
2026-04-27 00:16 -22.95528 63.47216 38931 ft 534 kts 118°
2026-04-27 00:16 -22.98635 63.54539 38930 ft 534 kts 118°
2026-04-27 00:17 -23.01741 63.61867 38939 ft 533 kts 118°
2026-04-27 00:17 -23.04838 63.69188 38934 ft 533 kts 118°
2026-04-27 00:18 -23.07930 63.76510 38931 ft 533 kts 117°
2026-04-27 00:18 -23.11015 63.83826 38935 ft 533 kts 117°
2026-04-27 00:19 -23.14097 63.91148 38935 ft 532 kts 117°
2026-04-27 00:19 -23.17171 63.98458 38936 ft 532 kts 117°
2026-04-27 00:20 -23.20227 64.05737 38932 ft 532 kts 117°
2026-04-27 00:20 -23.23296 64.13060 38935 ft 532 kts 117°
2026-04-27 00:21 -23.26367 64.20400 38936 ft 532 kts 117°
2026-04-27 00:21 -23.29426 64.27724 38930 ft 532 kts 117°
2026-04-27 00:22 -23.32466 64.35010 38937 ft 531 kts 117°
2026-04-27 00:22 -23.35518 64.42339 38930 ft 531 kts 117°
2026-04-27 00:23 -23.38566 64.49669 38935 ft 532 kts 117°
2026-04-27 00:23 -23.41613 64.57011 38936 ft 532 kts 117°
2026-04-27 00:24 -23.44655 64.64349 38939 ft 532 kts 116°
2026-04-27 00:24 -23.47698 64.71702 38931 ft 532 kts 116°
2026-04-27 00:25 -23.50735 64.79052 38936 ft 532 kts 116°
2026-04-27 00:25 -23.53770 64.86412 38935 ft 532 kts 116°
2026-04-27 00:26 -23.56782 64.93725 38938 ft 532 kts 116°
2026-04-27 00:26 -23.59808 65.01084 38934 ft 532 kts 116°
2026-04-27 00:27 -23.62831 65.08448 38933 ft 532 kts 116°
2026-04-27 00:27 -23.65858 65.15831 38932 ft 532 kts 116°
2026-04-27 00:28 -23.68872 65.23197 38935 ft 532 kts 116°
2026-04-27 00:28 -23.71888 65.30579 38930 ft 532 kts 116°
2026-04-27 00:29 -23.74899 65.37962 38930 ft 532 kts 115°
2026-04-27 00:29 -23.77904 65.45343 38930 ft 532 kts 115°
2026-04-27 00:30 -23.80884 65.52672 38934 ft 531 kts 115°
2026-04-27 00:30 -23.83880 65.60054 38934 ft 531 kts 115°
2026-04-27 00:31 -23.86867 65.67426 38930 ft 531 kts 115°
2026-04-27 00:31 -23.89852 65.74804 38938 ft 531 kts 115°
2026-04-27 00:32 -23.92831 65.82180 38935 ft 530 kts 115°
2026-04-27 00:32 -23.95809 65.89564 38937 ft 530 kts 115°
2026-04-27 00:33 -23.98782 65.96949 38936 ft 530 kts 115°
2026-04-27 00:33 -24.01698 66.04365 38935 ft 530 kts 113°
2026-04-27 00:34 -24.04365 66.11890 38937 ft 531 kts 111°
2026-04-27 00:34 -24.06994 66.19436 38918 ft 530 kts 112°
2026-04-27 00:35 -24.09636 66.26923 38923 ft 531 kts 112°
2026-04-27 00:35 -24.12312 66.34443 38922 ft 530 kts 112°
2026-04-27 00:36 -24.14991 66.41969 38924 ft 530 kts 112°
2026-04-27 00:36 -24.17667 66.49502 38932 ft 531 kts 112°
2026-04-27 00:37 -24.20337 66.57037 38928 ft 531 kts 112°
2026-04-27 00:37 -24.23004 66.64578 38925 ft 530 kts 112°
2026-04-27 00:38 -24.25668 66.72125 38916 ft 531 kts 112°
2026-04-27 00:38 -24.28333 66.79687 38928 ft 532 kts 112°
2026-04-27 00:39 -24.30977 66.87205 38926 ft 532 kts 112°
2026-04-27 00:39 -24.33635 66.94775 38932 ft 532 kts 111°
2026-04-27 00:40 -24.36291 67.02353 38923 ft 532 kts 111°
2026-04-27 00:40 -24.38946 67.09943 38916 ft 533 kts 111°
2026-04-27 00:41 -24.41598 67.17537 38923 ft 533 kts 111°
2026-04-27 00:41 -24.44244 67.25131 38919 ft 533 kts 111°
2026-04-27 00:42 -24.46891 67.32738 38934 ft 534 kts 111°
2026-04-27 00:42 -24.49519 67.40307 38925 ft 534 kts 111°
2026-04-27 00:43 -24.52159 67.47926 38930 ft 534 kts 111°
2026-04-27 00:43 -24.54796 67.55550 38916 ft 534 kts 111°
2026-04-27 00:44 -24.57435 67.63191 38929 ft 535 kts 111°
2026-04-27 00:44 -24.60069 67.70834 38928 ft 535 kts 111°
2026-04-27 00:45 -24.62700 67.78482 38924 ft 535 kts 111°
2026-04-27 00:45 -24.65328 67.86137 38923 ft 535 kts 111°
2026-04-27 00:46 -24.67952 67.93794 38920 ft 535 kts 111°
2026-04-27 00:46 -24.70133 68.00168 38916 ft 535 kts 111°
2026-04-27 00:47 -24.73175 68.09078 38930 ft 536 kts 111°
2026-04-27 00:47 -24.75352 68.15465 38922 ft 536 kts 111°
2026-04-27 00:48 -24.77967 68.23151 38931 ft 536 kts 111°
2026-04-27 00:48 -24.80576 68.30832 38932 ft 536 kts 111°
2026-04-27 00:49 -24.83185 68.38532 38914 ft 536 kts 111°
2026-04-27 00:49 -24.85786 68.46223 38928 ft 536 kts 111°
2026-04-27 00:50 -24.89690 68.57794 38927 ft 537 kts 110°
2026-04-27 00:51 -24.92288 68.65513 38922 ft 537 kts 110°
2026-04-27 00:51 -24.94879 68.73227 38927 ft 537 kts 110°
2026-04-27 00:52 -24.97469 68.80953 38921 ft 537 kts 110°
2026-04-27 00:52 -25.00041 68.88638 38926 ft 537 kts 110°
2026-04-27 00:53 -25.02622 68.96367 38934 ft 537 kts 110°
2026-04-27 00:53 -25.05201 69.04105 38932 ft 538 kts 110°
2026-04-27 00:54 -25.07781 69.11858 38935 ft 538 kts 110°
2026-04-27 00:54 -25.10355 69.19610 38924 ft 538 kts 110°
2026-04-27 00:55 -25.12925 69.27367 38924 ft 538 kts 110°
2026-04-27 00:55 -25.15493 69.35131 38923 ft 539 kts 110°
2026-04-27 00:56 -25.18044 69.42863 38927 ft 539 kts 110°
2026-04-27 00:56 -25.20609 69.50652 38926 ft 539 kts 110°
2026-04-27 00:57 -25.23167 69.58432 38923 ft 539 kts 110°
2026-04-27 00:57 -25.25724 69.66229 38914 ft 540 kts 110°
2026-04-27 00:58 -25.28278 69.74029 38923 ft 540 kts 110°
2026-04-27 00:58 -25.30826 69.81831 38914 ft 540 kts 110°
2026-04-27 00:59 -25.33354 69.89583 38922 ft 540 kts 109°
2026-04-27 00:59 -25.35897 69.97397 38915 ft 540 kts 109°
2026-04-27 01:00 -25.38442 70.05233 38912 ft 541 kts 109°
2026-04-27 01:00 -25.40980 70.13068 38918 ft 541 kts 109°
2026-04-27 01:01 -25.43517 70.20914 38918 ft 541 kts 109°
2026-04-27 01:01 -25.46052 70.28767 38912 ft 541 kts 109°
2026-04-27 01:02 -25.48563 70.36565 38918 ft 541 kts 109°
2026-04-27 01:02 -25.51087 70.44420 38915 ft 541 kts 109°
2026-04-27 01:03 -25.53606 70.52272 38915 ft 541 kts 109°
2026-04-27 01:03 -25.56119 70.60125 38916 ft 541 kts 109°
2026-04-27 01:04 -25.58632 70.67992 38912 ft 541 kts 109°
2026-04-27 01:04 -25.61138 70.75857 38917 ft 541 kts 109°
2026-04-27 01:05 -25.63642 70.83728 38911 ft 541 kts 109°
2026-04-27 01:05 -25.66138 70.91593 38914 ft 541 kts 109°
2026-04-27 01:06 -25.68632 70.99467 38918 ft 541 kts 109°
2026-04-27 01:06 -25.71110 71.07306 38911 ft 542 kts 109°
2026-04-27 01:07 -25.73596 71.15190 38916 ft 541 kts 109°
2026-04-27 01:07 -25.76081 71.23084 38912 ft 542 kts 109°
2026-04-27 01:08 -25.78561 71.30984 38919 ft 542 kts 109°
2026-04-27 01:08 -25.81036 71.38885 38915 ft 542 kts 109°
2026-04-27 01:09 -25.83508 71.46790 38912 ft 542 kts 109°
2026-04-27 01:09 -25.85978 71.54707 38914 ft 543 kts 109°
2026-04-27 01:10 -25.88444 71.62628 38915 ft 543 kts 108°
2026-04-27 01:10 -25.90908 71.70558 38911 ft 542 kts 108°
2026-04-27 01:11 -25.93353 71.78445 38912 ft 543 kts 108°
2026-04-27 01:11 -25.95808 71.86383 38918 ft 543 kts 108°
2026-04-27 01:12 -25.98263 71.94334 38917 ft 543 kts 108°
2026-04-27 01:12 -26.00713 72.02281 38916 ft 543 kts 109°
2026-04-27 01:13 -26.03213 72.10148 38918 ft 543 kts 109°
2026-04-27 01:13 -26.05755 72.18057 38917 ft 543 kts 109°
2026-04-27 01:14 -26.08285 72.25976 38915 ft 543 kts 109°
2026-04-27 01:14 -26.10804 72.33907 38917 ft 543 kts 109°
2026-04-27 01:15 -26.13311 72.41827 38914 ft 543 kts 109°
2026-04-27 01:15 -26.15817 72.49764 38934 ft 543 kts 109°
2026-04-27 01:16 -26.18316 72.57693 38923 ft 543 kts 109°
2026-04-27 01:16 -26.20812 72.65632 38920 ft 544 kts 109°
2026-04-27 01:17 -26.23307 72.73583 38925 ft 544 kts 109°
2026-04-27 01:17 -26.25798 72.81536 38918 ft 543 kts 109°
2026-04-27 01:18 -26.28283 72.89488 38932 ft 543 kts 108°
2026-04-27 01:18 -26.30763 72.97445 38922 ft 543 kts 108°
2026-04-27 01:19 -26.33224 73.05360 38923 ft 543 kts 108°
2026-04-27 01:19 -26.35695 73.13318 38920 ft 543 kts 108°
2026-04-27 01:20 -26.38162 73.21283 38929 ft 543 kts 108°
2026-04-27 01:20 -26.40625 73.29254 38932 ft 542 kts 108°
2026-04-27 01:21 -26.43077 73.37204 38933 ft 542 kts 108°
2026-04-27 01:21 -26.45523 73.45155 38937 ft 542 kts 108°
2026-04-27 01:22 -26.47969 73.53123 38932 ft 542 kts 108°
2026-04-27 01:22 -26.50389 73.61027 38938 ft 542 kts 108°
2026-04-27 01:23 -26.52823 73.68987 38933 ft 542 kts 108°
2026-04-27 01:23 -26.55255 73.76964 38937 ft 542 kts 108°
2026-04-27 01:24 -26.57677 73.84929 38931 ft 542 kts 108°
2026-04-27 01:24 -26.60096 73.92900 38931 ft 541 kts 108°
2026-04-27 01:25 -26.62501 74.00839 38933 ft 542 kts 108°
2026-04-27 01:25 -26.64917 74.08830 38934 ft 542 kts 108°
2026-04-27 01:26 -26.67326 74.16822 38935 ft 542 kts 108°
2026-04-27 01:26 -26.69730 74.24815 38934 ft 542 kts 108°
2026-04-27 01:27 -26.72133 74.32823 38933 ft 543 kts 108°
2026-04-27 01:27 -26.74533 74.40835 38932 ft 543 kts 108°
2026-04-27 01:28 -26.76909 74.48791 38938 ft 543 kts 108°
2026-04-27 01:28 -26.79300 74.56815 38934 ft 544 kts 108°
2026-04-27 01:29 -26.81689 74.64847 38930 ft 544 kts 107°
2026-04-27 01:29 -26.84077 74.72897 38931 ft 544 kts 107°
2026-04-27 01:30 -26.86459 74.80944 38935 ft 545 kts 108°
2026-04-27 01:30 -26.88837 74.88998 38933 ft 545 kts 107°
2026-04-27 01:31 -26.91212 74.97062 38934 ft 545 kts 107°
2026-04-27 01:31 -26.93587 75.05138 38937 ft 545 kts 107°
2026-04-27 01:32 -26.95954 75.13212 38931 ft 545 kts 107°
2026-04-27 01:32 -26.98319 75.21299 38939 ft 546 kts 107°
2026-04-27 01:33 -27.00666 75.29342 38933 ft 546 kts 107°
2026-04-27 01:33 -27.03025 75.37443 38931 ft 546 kts 107°
2026-04-27 01:34 -27.05381 75.45553 38932 ft 546 kts 107°
2026-04-27 01:34 -27.07730 75.53660 38935 ft 547 kts 107°
2026-04-27 01:35 -27.10076 75.61778 38933 ft 547 kts 107°
2026-04-27 01:35 -27.12021 75.68523 38935 ft 547 kts 107°
2026-04-27 01:36 -27.14362 75.76657 38933 ft 547 kts 107°
2026-04-27 01:36 -27.16699 75.84797 38935 ft 548 kts 107°
2026-04-27 01:37 -27.19032 75.92941 38935 ft 548 kts 107°
2026-04-27 01:37 -27.21361 76.01094 38931 ft 548 kts 107°
2026-04-27 01:38 -27.23672 76.09208 38938 ft 549 kts 107°
2026-04-27 01:38 -27.25998 76.17386 38937 ft 549 kts 107°
2026-04-27 01:39 -27.28320 76.25570 38936 ft 550 kts 107°
2026-04-27 01:39 -27.30637 76.33762 38938 ft 550 kts 107°
2026-04-27 01:40 -27.32949 76.41954 38931 ft 550 kts 107°
2026-04-27 01:40 -27.35257 76.50157 38931 ft 550 kts 107°
2026-04-27 01:41 -27.37563 76.58371 38937 ft 550 kts 107°
2026-04-27 01:41 -27.39861 76.66576 38931 ft 550 kts 107°
2026-04-27 01:42 -27.42141 76.74738 38935 ft 550 kts 107°
2026-04-27 01:42 -27.44429 76.82945 38931 ft 549 kts 107°
2026-04-27 01:43 -27.46714 76.91160 38931 ft 549 kts 107°
2026-04-27 01:43 -27.48992 76.99379 38931 ft 550 kts 107°
2026-04-27 01:44 -27.51267 77.07604 38939 ft 549 kts 107°
2026-04-27 01:44 -27.53538 77.15833 38931 ft 550 kts 107°
2026-04-27 01:45 -27.55804 77.24069 38934 ft 550 kts 107°
2026-04-27 01:45 -27.58064 77.32306 38934 ft 550 kts 107°
2026-04-27 01:46 -27.60322 77.40553 38939 ft 550 kts 107°
2026-04-27 01:46 -27.62575 77.48804 38933 ft 550 kts 107°
2026-04-27 01:47 -27.64811 77.57009 38934 ft 551 kts 107°
2026-04-27 01:47 -27.67056 77.65273 38931 ft 551 kts 107°
2026-04-27 01:48 -27.69295 77.73542 38931 ft 551 kts 107°
2026-04-27 01:48 -27.71533 77.81819 38931 ft 551 kts 107°
2026-04-27 01:49 -27.73766 77.90103 38935 ft 552 kts 107°
2026-04-27 01:49 -27.75980 77.98339 38935 ft 552 kts 107°
2026-04-27 01:50 -27.78205 78.06635 38938 ft 552 kts 107°
2026-04-27 01:50 -27.80424 78.14932 38938 ft 552 kts 107°
2026-04-27 01:51 -27.82638 78.23236 38937 ft 552 kts 107°
2026-04-27 01:51 -27.84845 78.31531 38931 ft 552 kts 107°
2026-04-27 01:52 -27.87050 78.39841 38935 ft 552 kts 107°
2026-04-27 01:52 -27.89248 78.48149 38931 ft 552 kts 107°
2026-04-27 01:53 -27.91443 78.56467 38938 ft 552 kts 107°
2026-04-27 01:53 -27.93618 78.64729 38933 ft 552 kts 107°
2026-04-27 01:54 -27.95801 78.73044 38935 ft 552 kts 107°
2026-04-27 01:54 -27.97981 78.81371 38931 ft 552 kts 107°
2026-04-27 01:55 -28.00153 78.89691 38934 ft 552 kts 107°
2026-04-27 01:55 -28.02324 78.98030 38931 ft 553 kts 107°
2026-04-27 01:56 -28.05580 79.10578 38935 ft 553 kts 107°
2026-04-27 01:56 -28.07729 79.18891 38931 ft 554 kts 107°
2026-04-27 01:57 -28.09889 79.27267 38933 ft 554 kts 107°
2026-04-27 01:57 -28.12048 79.35658 38933 ft 554 kts 107°
2026-04-27 01:58 -28.14198 79.44042 38935 ft 554 kts 107°
2026-04-27 01:58 -28.16341 79.52423 38935 ft 554 kts 107°
2026-04-27 01:59 -28.18482 79.60820 38946 ft 554 kts 107°
2026-04-27 01:59 -28.20617 79.69212 38943 ft 554 kts 107°
2026-04-27 02:00 -28.22732 79.77551 38941 ft 554 kts 107°
2026-04-27 02:00 -28.24860 79.85964 38942 ft 554 kts 107°
2026-04-27 02:01 -28.26979 79.94366 38944 ft 554 kts 107°
2026-04-27 02:01 -28.29093 80.02772 38941 ft 554 kts 107°
2026-04-27 02:02 -28.31202 80.11184 38942 ft 554 kts 107°
2026-04-27 02:02 -28.33305 80.19591 38945 ft 554 kts 107°
2026-04-27 02:03 -28.35404 80.28007 38941 ft 554 kts 107°
2026-04-27 02:03 -28.37501 80.36441 38944 ft 555 kts 107°
2026-04-27 02:04 -28.39589 80.44867 38941 ft 554 kts 107°
2026-04-27 02:04 -28.41661 80.53248 38941 ft 554 kts 107°
2026-04-27 02:05 -28.43742 80.61688 38947 ft 555 kts 107°
2026-04-27 02:05 -28.45822 80.70151 38942 ft 555 kts 107°
2026-04-27 02:06 -28.47893 80.78603 38941 ft 555 kts 107°
2026-04-27 02:06 -28.49960 80.87060 38944 ft 555 kts 107°
2026-04-27 02:07 -28.52010 80.95475 38944 ft 555 kts 108°
2026-04-27 02:07 -28.54066 81.03941 38941 ft 555 kts 108°
2026-04-27 02:08 -28.56118 81.12413 38945 ft 555 kts 108°
2026-04-27 02:08 -28.58168 81.20897 38941 ft 556 kts 108°
2026-04-27 02:09 -28.60213 81.29386 38947 ft 556 kts 108°
2026-04-27 02:09 -28.62253 81.37888 38943 ft 556 kts 108°
2026-04-27 02:10 -28.64271 81.46318 38941 ft 555 kts 108°
2026-04-27 02:10 -28.66298 81.54811 38942 ft 556 kts 108°
2026-04-27 02:11 -28.68322 81.63316 38945 ft 556 kts 108°
2026-04-27 02:11 -28.70341 81.71827 38945 ft 556 kts 108°
2026-04-27 02:12 -28.72353 81.80340 38941 ft 556 kts 108°
2026-04-27 02:12 -28.74360 81.88850 38942 ft 556 kts 108°
2026-04-27 02:13 -28.76352 81.97324 38944 ft 556 kts 108°
2026-04-27 02:13 -28.78348 82.05839 38944 ft 556 kts 108°
2026-04-27 02:14 -28.80338 82.14357 38942 ft 556 kts 108°
2026-04-27 02:14 -28.82320 82.22869 38942 ft 555 kts 108°
2026-04-27 02:15 -28.84296 82.31379 38949 ft 555 kts 108°
2026-04-27 02:15 -28.86267 82.39892 38952 ft 555 kts 108°
2026-04-27 02:16 -28.88231 82.48406 38952 ft 555 kts 108°
2026-04-27 02:16 -28.90179 82.56874 38952 ft 555 kts 108°
2026-04-27 02:17 -28.92136 82.65403 38952 ft 555 kts 108°
2026-04-27 02:17 -28.94088 82.73938 38954 ft 555 kts 108°
2026-04-27 02:18 -28.96033 82.82476 38951 ft 555 kts 108°
2026-04-27 02:18 -28.97958 82.90952 38953 ft 555 kts 108°
2026-04-27 02:19 -28.99889 82.99479 38952 ft 554 kts 108°
2026-04-27 02:19 -29.01736 83.08036 38952 ft 555 kts 107°
2026-04-27 02:20 -29.03470 83.16638 38952 ft 555 kts 106°
2026-04-27 02:20 -29.05201 83.25232 38952 ft 555 kts 107°
2026-04-27 02:21 -29.06945 83.33821 38952 ft 555 kts 107°
2026-04-27 02:21 -29.08697 83.42431 38952 ft 555 kts 107°
2026-04-27 02:22 -29.10429 83.50961 38952 ft 555 kts 107°
2026-04-27 02:22 -29.12167 83.59557 38953 ft 554 kts 107°
2026-04-27 02:23 -29.13898 83.68152 38954 ft 554 kts 107°
2026-04-27 02:23 -29.15623 83.76749 38954 ft 554 kts 107°
2026-04-27 02:24 -29.17342 83.85350 38952 ft 554 kts 107°
2026-04-27 02:24 -29.18771 83.92516 38952 ft 554 kts 107°
2026-04-27 02:25 -29.20759 84.02525 38954 ft 555 kts 107°
2026-04-27 02:25 -29.22461 84.11132 38952 ft 554 kts 107°
2026-04-27 02:26 -29.23883 84.18343 38952 ft 554 kts 107°
2026-04-27 02:26 -29.25561 84.26880 38952 ft 553 kts 107°
2026-04-27 02:27 -29.27248 84.35488 38952 ft 553 kts 107°
2026-04-27 02:27 -29.28926 84.44091 38954 ft 553 kts 107°
2026-04-27 02:28 -29.30599 84.52697 38951 ft 553 kts 107°
2026-04-27 02:28 -29.32267 84.61305 38952 ft 553 kts 107°
2026-04-27 02:29 -29.33931 84.69931 38954 ft 553 kts 107°
2026-04-27 02:29 -29.35586 84.78535 38952 ft 553 kts 107°
2026-04-27 02:30 -29.37236 84.87141 38952 ft 553 kts 107°
2026-04-27 02:30 -29.38870 84.95701 38952 ft 553 kts 107°
2026-04-27 02:31 -29.40507 85.04308 38952 ft 552 kts 107°
2026-04-27 02:31 -29.42138 85.12918 38952 ft 552 kts 107°
2026-04-27 02:32 -29.43764 85.21531 38952 ft 552 kts 107°
2026-04-27 02:32 -29.45385 85.30145 38952 ft 552 kts 107°
2026-04-27 02:33 -29.46999 85.38757 38951 ft 552 kts 107°
2026-04-27 02:33 -29.48605 85.47361 38952 ft 551 kts 107°
2026-04-27 02:34 -29.50194 85.55912 38952 ft 552 kts 107°
2026-04-27 02:34 -29.51793 85.64530 38951 ft 552 kts 107°
2026-04-27 02:35 -29.53383 85.73144 38952 ft 551 kts 107°
2026-04-27 02:35 -29.54967 85.81759 38952 ft 551 kts 107°
2026-04-27 02:36 -29.56546 85.90385 38953 ft 551 kts 107°
2026-04-27 02:36 -29.58122 85.99024 38952 ft 551 kts 107°
2026-04-27 02:37 -29.59690 86.07647 38952 ft 551 kts 107°
2026-04-27 02:37 -29.61239 86.16205 38956 ft 550 kts 107°
2026-04-27 02:38 -29.62790 86.24801 38952 ft 549 kts 107°
2026-04-27 02:38 -29.64336 86.33407 38952 ft 549 kts 107°
2026-04-27 02:39 -29.65875 86.42003 38956 ft 549 kts 107°
2026-04-27 02:39 -29.67410 86.50617 38952 ft 549 kts 107°
2026-04-27 02:40 -29.68936 86.59214 38952 ft 548 kts 107°
2026-04-27 02:40 -29.70445 86.67741 38952 ft 547 kts 107°
2026-04-27 02:41 -29.71957 86.76322 38952 ft 546 kts 107°
2026-04-27 02:41 -29.73460 86.84885 38952 ft 545 kts 107°
2026-04-27 02:42 -29.74956 86.93451 38953 ft 545 kts 107°
2026-04-27 02:42 -29.76444 87.01998 38954 ft 543 kts 107°
2026-04-27 02:43 -29.77912 87.10462 38954 ft 542 kts 107°
2026-04-27 02:43 -29.79382 87.18967 38952 ft 541 kts 107°
2026-04-27 02:44 -29.80841 87.27454 38952 ft 540 kts 107°
2026-04-27 02:44 -29.82293 87.35927 38952 ft 539 kts 107°
2026-04-27 02:45 -29.83736 87.44382 38960 ft 537 kts 107°
2026-04-27 02:45 -29.85170 87.52820 38962 ft 536 kts 107°
2026-04-27 02:46 -29.86598 87.61258 38962 ft 535 kts 107°
2026-04-27 02:46 -29.88017 87.69673 38962 ft 534 kts 107°
2026-04-27 02:47 -29.89420 87.78026 38962 ft 534 kts 107°
2026-04-27 02:47 -29.90824 87.86423 38962 ft 533 kts 107°
2026-04-27 02:48 -29.92222 87.94815 38961 ft 533 kts 107°
2026-04-27 02:48 -29.93613 88.03203 38962 ft 532 kts 107°
2026-04-27 02:49 -29.95002 88.11611 38961 ft 533 kts 107°
2026-04-27 02:49 -29.96383 88.20000 38961 ft 533 kts 107°
2026-04-27 02:50 -29.97751 88.28342 38962 ft 533 kts 107°
2026-04-27 02:50 -29.99121 88.36740 38962 ft 533 kts 107°
2026-04-27 02:51 -30.00485 88.45137 38962 ft 533 kts 107°
2026-04-27 02:51 -30.01845 88.53547 38962 ft 534 kts 107°
2026-04-27 02:52 -30.03203 88.61970 38961 ft 534 kts 107°
2026-04-27 02:52 -30.04559 88.70420 38961 ft 535 kts 107°
2026-04-27 02:53 -30.05910 88.78874 38962 ft 535 kts 107°
2026-04-27 02:53 -30.07255 88.87334 38962 ft 536 kts 107°
2026-04-27 02:54 -30.08586 88.95739 38961 ft 536 kts 108°
2026-04-27 02:54 -30.09922 89.04215 38962 ft 536 kts 107°
2026-04-27 02:55 -30.11254 89.12698 38961 ft 536 kts 108°
2026-04-27 02:55 -30.12580 89.21170 38962 ft 536 kts 107°
2026-04-27 02:56 -30.13899 89.29645 38962 ft 536 kts 107°
2026-04-27 02:56 -30.15214 89.38129 38961 ft 536 kts 107°
2026-04-27 02:57 -30.16515 89.46562 38962 ft 536 kts 107°
2026-04-27 02:57 -30.17820 89.55063 38961 ft 537 kts 107°
2026-04-27 02:58 -30.19117 89.63549 38962 ft 536 kts 107°
2026-04-27 02:58 -30.20408 89.72025 38961 ft 535 kts 107°
2026-04-27 02:59 -30.21694 89.80515 38962 ft 535 kts 107°
2026-04-27 02:59 -30.22974 89.89000 38972 ft 535 kts 107°
2026-04-27 03:00 -30.24250 89.97492 38971 ft 535 kts 107°
2026-04-27 03:00 -30.25520 90.05981 38972 ft 535 kts 107°
2026-04-27 03:01 -30.26775 90.14416 38971 ft 536 kts 107°
2026-04-27 03:01 -30.28034 90.22911 38971 ft 535 kts 107°
2026-04-27 03:02 -30.29287 90.31407 38971 ft 536 kts 107°
2026-04-27 03:02 -30.30539 90.39933 38971 ft 537 kts 107°
2026-04-27 03:03 -30.32405 90.52728 38972 ft 538 kts 107°
2026-04-27 03:04 -30.33642 90.61261 38972 ft 538 kts 107°
2026-04-27 03:04 -30.34876 90.69803 38972 ft 538 kts 107°
2026-04-27 03:05 -30.36107 90.78364 38970 ft 540 kts 107°
2026-04-27 03:05 -30.37333 90.86942 38971 ft 540 kts 107°
2026-04-27 03:06 -30.38554 90.95521 38970 ft 540 kts 107°
2026-04-27 03:06 -30.39770 91.04104 38972 ft 541 kts 106°
2026-04-27 03:07 -30.40982 91.12701 38967 ft 541 kts 106°
2026-04-27 03:07 -30.42188 91.21309 38952 ft 541 kts 106°
2026-04-27 03:08 -30.43390 91.29926 38954 ft 542 kts 106°
2026-04-27 03:08 -30.44580 91.38491 38952 ft 542 kts 106°
2026-04-27 03:09 -30.45774 91.47132 38953 ft 543 kts 106°
2026-04-27 03:09 -30.46964 91.55784 38952 ft 543 kts 106°
2026-04-27 03:10 -30.48147 91.64439 38952 ft 543 kts 106°
2026-04-27 03:10 -30.49325 91.73098 38954 ft 543 kts 106°
2026-04-27 03:11 -30.50498 91.81760 38952 ft 543 kts 106°
2026-04-27 03:11 -30.51658 91.90366 38952 ft 543 kts 106°
2026-04-27 03:12 -30.52820 91.99037 38952 ft 544 kts 106°
2026-04-27 03:12 -30.53976 92.07709 38952 ft 543 kts 105°
2026-04-27 03:13 -30.54931 92.14915 38952 ft 543 kts 105°
2026-04-27 03:13 -30.56259 92.24975 38953 ft 542 kts 105°
2026-04-27 03:14 -30.57211 92.32224 38951 ft 542 kts 105°
2026-04-27 03:14 -30.58335 92.40823 38953 ft 542 kts 105°
2026-04-27 03:15 -30.59459 92.49465 38955 ft 542 kts 105°
2026-04-27 03:15 -30.60577 92.58110 38953 ft 542 kts 104°
2026-04-27 03:16 -30.61689 92.66755 38961 ft 542 kts 104°
2026-04-27 03:16 -30.62796 92.75412 38961 ft 542 kts 104°
2026-04-27 03:17 -30.63898 92.84082 38961 ft 542 kts 103°
2026-04-27 03:17 -30.64990 92.92705 38976 ft 543 kts 103°
2026-04-27 03:18 -30.66081 93.01375 38978 ft 543 kts 103°
2026-04-27 03:18 -30.67167 93.10060 38980 ft 543 kts 103°
2026-04-27 03:19 -30.68248 93.18746 38979 ft 543 kts 103°
2026-04-27 03:19 -30.69324 93.27437 38981 ft 543 kts 103°
2026-04-27 03:20 -30.70394 93.36131 38978 ft 543 kts 103°
2026-04-27 03:20 -30.71459 93.44832 38981 ft 543 kts 103°
2026-04-27 03:21 -30.72517 93.53526 38974 ft 543 kts 103°
2026-04-27 03:21 -30.73564 93.62172 38981 ft 543 kts 103°
2026-04-27 03:22 -30.74610 93.70873 38981 ft 544 kts 103°
2026-04-27 03:22 -30.75652 93.79589 38989 ft 544 kts 103°
2026-04-27 03:23 -30.76690 93.88316 38989 ft 544 kts 103°
2026-04-27 03:23 -30.77720 93.97040 38992 ft 544 kts 103°
2026-04-27 03:24 -30.78744 94.05750 38990 ft 543 kts 102°
2026-04-27 03:24 -30.79762 94.14461 38988 ft 543 kts 102°
2026-04-27 03:25 -30.80773 94.23168 38992 ft 542 kts 102°
2026-04-27 03:25 -30.81777 94.31863 38989 ft 542 kts 102°
2026-04-27 03:26 -30.82774 94.40550 38990 ft 542 kts 102°
2026-04-27 03:26 -30.83760 94.49193 38991 ft 541 kts 102°
2026-04-27 03:27 -30.84743 94.57872 38992 ft 541 kts 102°
2026-04-27 03:27 -30.85722 94.66560 38989 ft 540 kts 102°
2026-04-27 03:28 -30.86692 94.75226 38989 ft 540 kts 102°
2026-04-27 03:28 -30.87657 94.83888 38991 ft 540 kts 101°
2026-04-27 03:29 -30.88615 94.92550 38992 ft 540 kts 101°
2026-04-27 03:29 -30.89568 95.01225 38986 ft 539 kts 101°
2026-04-27 03:30 -30.90514 95.09884 38987 ft 539 kts 101°
2026-04-27 03:30 -30.91454 95.18540 38992 ft 538 kts 101°
2026-04-27 03:31 -30.92383 95.27149 38992 ft 538 kts 101°
2026-04-27 03:31 -30.93311 95.35799 38986 ft 538 kts 101°
2026-04-27 03:32 -30.94232 95.44448 38992 ft 538 kts 101°
2026-04-27 03:32 -30.95145 95.53087 38992 ft 537 kts 101°
2026-04-27 03:33 -30.96055 95.61742 38986 ft 537 kts 101°
2026-04-27 03:33 -30.96957 95.70378 38992 ft 537 kts 101°
2026-04-27 03:34 -30.97855 95.79027 38991 ft 537 kts 100°
2026-04-27 03:34 -30.98748 95.87683 38990 ft 537 kts 100°
2026-04-27 03:35 -30.99631 95.96314 38996 ft 536 kts 100°
2026-04-27 03:35 -31.00554 96.04882 39006 ft 535 kts 101°
2026-04-27 03:36 -31.01724 96.13435 39028 ft 533 kts 103°
2026-04-27 03:36 -31.02927 96.21972 39026 ft 533 kts 102°
2026-04-27 03:37 -31.04088 96.30510 39027 ft 533 kts 102°
2026-04-27 03:37 -31.05219 96.39049 39028 ft 533 kts 102°
2026-04-27 03:38 -31.06339 96.47591 39027 ft 532 kts 102°
2026-04-27 03:38 -31.07454 96.56128 39026 ft 532 kts 102°
2026-04-27 03:39 -31.08564 96.64670 39027 ft 532 kts 101°
2026-04-27 03:39 -31.09662 96.73155 39027 ft 532 kts 101°
2026-04-27 03:40 -31.10763 96.81702 39026 ft 532 kts 101°
2026-04-27 03:40 -31.11855 96.90235 39012 ft 531 kts 101°
2026-04-27 03:41 -31.12942 96.98773 39008 ft 531 kts 101°
2026-04-27 03:41 -31.14023 97.07308 39017 ft 531 kts 101°
2026-04-27 03:42 -31.15091 97.15784 39008 ft 530 kts 101°
2026-04-27 03:42 -31.16159 97.24313 39018 ft 530 kts 101°
2026-04-27 03:43 -31.17220 97.32828 39020 ft 530 kts 101°
2026-04-27 03:43 -31.18276 97.41345 39022 ft 529 kts 100°
2026-04-27 03:44 -31.19324 97.49855 39008 ft 529 kts 100°
2026-04-27 03:44 -31.20360 97.58314 39008 ft 528 kts 100°
2026-04-27 03:45 -31.21396 97.66818 39017 ft 528 kts 100°
2026-04-27 03:45 -31.22424 97.75308 39003 ft 527 kts 100°
2026-04-27 03:46 -31.23448 97.83802 39000 ft 527 kts 100°
2026-04-27 03:46 -31.24465 97.92292 39003 ft 527 kts 100°
2026-04-27 03:47 -31.25467 98.00706 39003 ft 526 kts 100°
2026-04-27 03:47 -31.26472 98.09182 39002 ft 526 kts 99°
2026-04-27 03:48 -31.27469 98.17654 38999 ft 526 kts 99°
2026-04-27 03:48 -31.28460 98.26118 38999 ft 526 kts 99°
2026-04-27 03:49 -31.29447 98.34592 38991 ft 526 kts 99°
2026-04-27 03:49 -31.30422 98.43023 39001 ft 526 kts 99°
2026-04-27 03:50 -31.31398 98.51507 38996 ft 527 kts 99°
2026-04-27 03:50 -31.32369 98.60002 39003 ft 527 kts 99°
2026-04-27 03:51 -31.33335 98.68496 38994 ft 527 kts 99°
2026-04-27 03:51 -31.34297 98.77008 38998 ft 527 kts 98°
2026-04-27 03:52 -31.35252 98.85512 38996 ft 527 kts 98°
2026-04-27 03:52 -31.36201 98.94022 38996 ft 527 kts 98°
2026-04-27 03:53 -31.37138 99.02472 39001 ft 527 kts 98°
2026-04-27 03:53 -31.38078 99.10991 38997 ft 527 kts 98°
2026-04-27 03:54 -31.39011 99.19501 39003 ft 527 kts 98°
2026-04-27 03:54 -31.39938 99.28021 39003 ft 527 kts 98°
2026-04-27 03:55 -31.40858 99.36533 38996 ft 527 kts 98°
2026-04-27 03:55 -31.41775 99.45053 39003 ft 527 kts 98°
2026-04-27 03:56 -31.42680 99.53519 38999 ft 527 kts 98°
2026-04-27 03:56 -31.43584 99.62030 39003 ft 527 kts 98°
2026-04-27 03:57 -31.44482 99.70542 39003 ft 526 kts 98°
2026-04-27 03:57 -31.45373 99.79050 38996 ft 526 kts 97°
2026-04-27 03:58 -31.46259 99.87551 38994 ft 526 kts 97°
2026-04-27 03:58 -31.47137 99.96048 38996 ft 526 kts 97°
2026-04-27 03:59 -31.48012 100.04563 38999 ft 526 kts 97°
2026-04-27 03:59 -31.48880 100.13064 38995 ft 526 kts 97°
2026-04-27 04:00 -31.49743 100.21569 39007 ft 526 kts 97°
2026-04-27 04:00 -31.50600 100.30076 39009 ft 526 kts 97°
2026-04-27 04:01 -31.51450 100.38580 39012 ft 526 kts 97°
2026-04-27 04:01 -31.52291 100.47044 39005 ft 526 kts 97°
2026-04-27 04:02 -31.53133 100.55571 39008 ft 527 kts 97°
2026-04-27 04:02 -31.53834 100.62723 39006 ft 527 kts 97°
2026-04-27 04:03 -31.54661 100.71205 39012 ft 527 kts 96°
2026-04-27 04:03 -31.55488 100.79751 39012 ft 528 kts 96°
2026-04-27 04:04 -31.56311 100.88310 39012 ft 528 kts 96°
2026-04-27 04:04 -31.57128 100.96870 39009 ft 528 kts 96°
2026-04-27 04:05 -31.57940 101.05446 39012 ft 529 kts 96°
2026-04-27 04:05 -31.58746 101.14027 39004 ft 529 kts 96°
2026-04-27 04:06 -31.59546 101.22598 39010 ft 529 kts 96°
2026-04-27 04:06 -31.60341 101.31175 38999 ft 529 kts 96°
2026-04-27 04:07 -31.61517 101.43989 39013 ft 529 kts 95°
2026-04-27 04:07 -31.62300 101.52579 39003 ft 529 kts 95°
2026-04-27 04:08 -31.63076 101.61176 39012 ft 529 kts 95°
2026-04-27 04:08 -31.63844 101.69758 39012 ft 529 kts 95°
2026-04-27 04:09 -31.64607 101.78349 39002 ft 529 kts 95°
2026-04-27 04:09 -31.65364 101.86926 39012 ft 528 kts 95°
2026-04-27 04:10 -31.66114 101.95502 39012 ft 528 kts 95°
2026-04-27 04:10 -31.66859 102.04085 39007 ft 528 kts 95°
2026-04-27 04:11 -31.67593 102.12599 39012 ft 528 kts 95°
2026-04-27 04:11 -31.68326 102.21174 39007 ft 528 kts 95°
2026-04-27 04:12 -31.69054 102.29751 39009 ft 528 kts 95°
2026-04-27 04:12 -31.69775 102.38328 39010 ft 528 kts 95°
2026-04-27 04:13 -31.70491 102.46906 38999 ft 528 kts 94°
2026-04-27 04:13 -31.71202 102.55496 39012 ft 528 kts 94°
2026-04-27 04:14 -31.71907 102.64083 39007 ft 528 kts 94°
2026-04-27 04:14 -31.72607 102.72688 39009 ft 529 kts 94°
2026-04-27 04:15 -31.73297 102.81237 39006 ft 529 kts 94°
2026-04-27 04:15 -31.73987 102.89846 39006 ft 529 kts 94°
2026-04-27 04:16 -31.74670 102.98457 39008 ft 529 kts 94°
2026-04-27 04:16 -31.75347 103.07069 39009 ft 529 kts 94°
2026-04-27 04:17 -31.76018 103.15676 39008 ft 528 kts 94°
2026-04-27 04:17 -31.76682 103.24267 39006 ft 528 kts 94°
2026-04-27 04:18 -31.77340 103.32854 39006 ft 527 kts 94°
2026-04-27 04:18 -31.77992 103.41442 38998 ft 527 kts 94°
2026-04-27 04:19 -31.78634 103.49967 39012 ft 527 kts 94°
2026-04-27 04:19 -31.79273 103.58540 39008 ft 527 kts 93°
2026-04-27 04:20 -31.79907 103.67117 38998 ft 526 kts 93°
2026-04-27 04:20 -31.80533 103.75678 39006 ft 525 kts 93°
2026-04-27 04:21 -31.81153 103.84239 39012 ft 525 kts 93°
2026-04-27 04:21 -31.81770 103.92805 39012 ft 525 kts 93°
2026-04-27 04:22 -31.82378 104.01353 39008 ft 525 kts 93°
2026-04-27 04:22 -31.82978 104.09860 39012 ft 525 kts 93°
2026-04-27 04:23 -31.83576 104.18415 39012 ft 524 kts 93°
2026-04-27 04:23 -31.84167 104.26963 39008 ft 525 kts 93°
2026-04-27 04:24 -31.84753 104.35522 39009 ft 525 kts 93°
2026-04-27 04:24 -31.85333 104.44085 39012 ft 525 kts 93°
2026-04-27 04:25 -31.85908 104.52657 39012 ft 526 kts 93°
2026-04-27 04:25 -31.86478 104.61229 39010 ft 526 kts 92°
2026-04-27 04:26 -31.87042 104.69808 39007 ft 526 kts 92°
2026-04-27 04:26 -31.87599 104.78360 39012 ft 526 kts 92°
2026-04-27 04:27 -31.88152 104.86953 39012 ft 526 kts 92°
2026-04-27 04:27 -31.88701 104.95559 39007 ft 526 kts 92°
2026-04-27 04:28 -31.89242 105.04147 39001 ft 527 kts 92°
2026-04-27 04:28 -31.89779 105.12760 39017 ft 527 kts 92°
2026-04-27 04:29 -31.90306 105.21304 39022 ft 527 kts 92°
2026-04-27 04:29 -31.90831 105.29906 39016 ft 527 kts 92°
2026-04-27 04:30 -31.91349 105.38502 39020 ft 526 kts 92°
2026-04-27 04:30 -31.91862 105.47099 39017 ft 526 kts 92°
2026-04-27 04:31 -31.92368 105.55684 39004 ft 526 kts 92°
2026-04-27 04:31 -31.92870 105.64284 39018 ft 525 kts 92°
2026-04-27 04:32 -31.93364 105.72861 39022 ft 524 kts 91°
2026-04-27 04:32 -31.93852 105.81431 39022 ft 524 kts 91°
2026-04-27 04:33 -31.94333 105.90001 39006 ft 524 kts 91°
2026-04-27 04:33 -31.94809 105.98568 39022 ft 524 kts 91°
2026-04-27 04:34 -31.95279 106.07137 39021 ft 524 kts 91°
2026-04-27 04:34 -31.95741 106.15647 39018 ft 524 kts 91°
2026-04-27 04:35 -31.96200 106.24220 39021 ft 524 kts 91°
2026-04-27 04:35 -31.96653 106.32798 39021 ft 524 kts 91°
2026-04-27 04:36 -31.97100 106.41391 39018 ft 525 kts 91°
2026-04-27 04:36 -31.97541 106.49930 39021 ft 525 kts 91°
2026-04-27 04:37 -31.97977 106.58516 39016 ft 526 kts 91°
2026-04-27 04:37 -31.98409 106.67114 39016 ft 526 kts 91°
2026-04-27 04:38 -31.98835 106.75726 39016 ft 527 kts 91°
2026-04-27 04:38 -31.99256 106.84341 39022 ft 527 kts 91°
2026-04-27 04:39 -31.99671 106.92969 39021 ft 527 kts 91°
2026-04-27 04:39 -32.00077 107.01602 39011 ft 528 kts 90°
2026-04-27 04:40 -32.00158 107.10165 39021 ft 525 kts 86°
2026-04-27 04:40 -32.00046 107.18752 39010 ft 524 kts 86°
2026-04-27 04:41 -31.99963 107.27339 39014 ft 525 kts 86°
2026-04-27 04:41 -31.99921 107.35966 39017 ft 527 kts 86°
2026-04-27 04:42 -31.99891 107.44620 39019 ft 528 kts 86°
2026-04-27 04:42 -31.99856 107.53268 39017 ft 528 kts 86°
2026-04-27 04:43 -31.99813 107.61925 39022 ft 529 kts 86°
2026-04-27 04:43 -31.99762 107.70593 39017 ft 529 kts 86°
2026-04-27 04:44 -31.99706 107.79203 39021 ft 529 kts 86°
2026-04-27 04:44 -31.99643 107.87859 39017 ft 528 kts 86°
2026-04-27 04:45 -31.99574 107.96520 39018 ft 528 kts 86°
2026-04-27 04:45 -31.99500 108.05171 39016 ft 528 kts 86°
2026-04-27 04:46 -31.99420 108.13836 39017 ft 528 kts 86°
2026-04-27 04:46 -31.99334 108.22479 39008 ft 528 kts 86°
2026-04-27 04:47 -31.99243 108.31131 39015 ft 528 kts 86°
2026-04-27 04:47 -31.99144 108.39788 39021 ft 528 kts 86°
2026-04-27 04:48 -31.99041 108.48386 39021 ft 528 kts 86°
2026-04-27 04:48 -31.98932 108.57035 39015 ft 528 kts 86°
2026-04-27 04:49 -31.98817 108.65702 39014 ft 528 kts 86°
2026-04-27 04:49 -31.98695 108.74356 39006 ft 528 kts 86°
2026-04-27 04:50 -31.98569 108.82971 39022 ft 528 kts 86°
2026-04-27 04:50 -31.98436 108.91626 39014 ft 528 kts 86°
2026-04-27 04:51 -31.98321 108.98818 39017 ft 529 kts 86°
2026-04-27 04:51 -31.98177 109.07484 39017 ft 529 kts 86°
2026-04-27 04:52 -31.98027 109.16145 39012 ft 529 kts 85°
2026-04-27 04:52 -31.97871 109.24825 39022 ft 529 kts 86°
2026-04-27 04:53 -31.97710 109.33491 39021 ft 529 kts 85°
2026-04-27 04:53 -31.97543 109.42166 39013 ft 529 kts 85°
2026-04-27 04:54 -31.97370 109.50834 39021 ft 529 kts 85°
2026-04-27 04:54 -31.97192 109.59447 39011 ft 529 kts 85°
2026-04-27 04:55 -31.97006 109.68111 39018 ft 529 kts 85°
2026-04-27 04:55 -31.96814 109.76791 39022 ft 530 kts 85°
2026-04-27 04:56 -31.96618 109.85462 39015 ft 529 kts 85°
2026-04-27 04:56 -31.96415 109.94137 39009 ft 529 kts 85°
2026-04-27 04:57 -31.96206 110.02810 39013 ft 529 kts 85°
2026-04-27 04:57 -31.95991 110.11478 39022 ft 529 kts 85°
2026-04-27 04:58 -31.95770 110.20135 39022 ft 529 kts 85°
2026-04-27 04:58 -31.95546 110.28743 39014 ft 529 kts 85°
2026-04-27 04:59 -31.95314 110.37409 39014 ft 529 kts 85°
2026-04-27 04:59 -31.95076 110.46084 39022 ft 529 kts 85°
2026-04-27 05:00 -31.94831 110.54741 39011 ft 528 kts 85°
2026-04-27 05:00 -31.94584 110.63329 39022 ft 528 kts 85°
2026-04-27 05:01 -31.94329 110.71964 39015 ft 528 kts 85°
2026-04-27 05:01 -31.94069 110.80596 39019 ft 527 kts 85°
2026-04-27 05:02 -31.93802 110.89222 39014 ft 527 kts 85°
2026-04-27 05:03 -31.93393 111.02145 39015 ft 526 kts 85°
2026-04-27 05:03 -31.93113 111.10753 39015 ft 526 kts 84°
2026-04-27 05:04 -31.92826 111.19352 39017 ft 525 kts 84°
2026-04-27 05:04 -31.92535 111.27944 39016 ft 525 kts 84°
2026-04-27 05:05 -31.92237 111.36521 39019 ft 524 kts 84°
2026-04-27 05:05 -31.91934 111.45098 39013 ft 524 kts 84°
2026-04-27 05:06 -31.91626 111.53665 39026 ft 524 kts 84°
2026-04-27 05:06 -31.91313 111.62217 39027 ft 523 kts 84°
2026-04-27 05:07 -31.90995 111.70728 39028 ft 523 kts 84°
2026-04-27 05:07 -31.90671 111.79274 39036 ft 523 kts 84°
2026-04-27 05:08 -31.90341 111.87828 39036 ft 522 kts 84°
2026-04-27 05:08 -31.90004 111.96374 39036 ft 522 kts 84°
2026-04-27 05:09 -31.89663 112.04910 39034 ft 522 kts 84°
2026-04-27 05:09 -31.89318 112.13398 39036 ft 522 kts 84°
2026-04-27 05:10 -31.88966 112.21937 39037 ft 522 kts 84°
2026-04-27 05:10 -31.88607 112.30476 39035 ft 522 kts 84°
2026-04-27 05:11 -31.88243 112.39010 39032 ft 523 kts 84°
2026-04-27 05:11 -31.87873 112.47556 39013 ft 523 kts 84°
2026-04-27 05:12 -31.87497 112.56095 39022 ft 523 kts 84°
2026-04-27 05:12 -31.87116 112.64645 39022 ft 523 kts 84°
2026-04-27 05:13 -31.86728 112.73196 39022 ft 524 kts 83°
2026-04-27 05:13 -31.86334 112.81752 39021 ft 524 kts 83°
2026-04-27 05:14 -31.85935 112.90316 38972 ft 524 kts 83°
2026-04-27 05:14 -31.85733 112.94563 38744 ft 525 kts 83°
2026-04-27 05:14 -31.85532 112.98814 38441 ft 517 kts 83°
2026-04-27 05:14 -31.85332 113.03025 37862 ft 516 kts 83°
2026-04-27 05:15 -31.85128 113.07252 37197 ft 517 kts 83°
2026-04-27 05:15 -31.84922 113.11481 36529 ft 518 kts 83°
2026-04-27 05:15 -31.84714 113.15714 35854 ft 519 kts 82°
2026-04-27 05:15 -31.84505 113.19960 35199 ft 519 kts 82°
2026-04-27 05:16 -31.84297 113.24185 34701 ft 515 kts 82°
2026-04-27 05:16 -31.84089 113.28374 34208 ft 511 kts 82°
2026-04-27 05:16 -31.83884 113.32482 33700 ft 508 kts 82°
2026-04-27 05:16 -31.83673 113.36665 33193 ft 504 kts 81°
2026-04-27 05:17 -31.83465 113.40762 32689 ft 499 kts 81°
2026-04-27 05:17 -31.83258 113.44818 32193 ft 495 kts 81°
2026-04-27 05:17 -31.83055 113.48783 31715 ft 490 kts 81°
2026-04-27 05:17 -31.82849 113.52766 31232 ft 485 kts 81°
2026-04-27 05:18 -31.82643 113.56709 30753 ft 480 kts 81°
2026-04-27 05:18 -31.82439 113.60606 30280 ft 475 kts 81°
2026-04-27 05:18 -31.82235 113.64466 29807 ft 470 kts 81°
2026-04-27 05:18 -31.82033 113.68281 29345 ft 465 kts 80°
2026-04-27 05:19 -31.81832 113.72053 28883 ft 460 kts 80°
2026-04-27 05:19 -31.81633 113.75784 28422 ft 455 kts 80°
2026-04-27 05:19 -31.81434 113.79476 27969 ft 450 kts 80°
2026-04-27 05:19 -31.81236 113.83131 27514 ft 445 kts 80°
2026-04-27 05:20 -31.81039 113.86748 27063 ft 441 kts 79°
2026-04-27 05:20 -31.80843 113.90319 26615 ft 436 kts 79°
2026-04-27 05:20 -31.80648 113.93860 26177 ft 432 kts 79°
2026-04-27 05:20 -31.80454 113.97364 25724 ft 428 kts 79°
2026-04-27 05:21 -31.80261 114.00837 25284 ft 424 kts 79°
2026-04-27 05:21 -31.80068 114.04278 24833 ft 420 kts 79°
2026-04-27 05:21 -31.79877 114.07692 24394 ft 417 kts 79°
2026-04-27 05:21 -31.79686 114.11075 23944 ft 413 kts 79°
2026-04-27 05:22 -31.79495 114.14429 23509 ft 409 kts 79°
2026-04-27 05:22 -31.79305 114.17762 23072 ft 406 kts 79°
2026-04-27 05:22 -31.79116 114.21059 22637 ft 403 kts 79°
2026-04-27 05:22 -31.78928 114.24328 22197 ft 400 kts 79°
2026-04-27 05:23 -31.78740 114.27575 21771 ft 396 kts 80°
2026-04-27 05:23 -31.78553 114.30796 21347 ft 394 kts 80°
2026-04-27 05:23 -31.78366 114.33999 20910 ft 391 kts 81°
2026-04-27 05:23 -31.78183 114.37131 20493 ft 388 kts 81°
2026-04-27 05:24 -31.77997 114.40285 20069 ft 386 kts 81°
2026-04-27 05:24 -31.77810 114.43435 19648 ft 385 kts 81°
2026-04-27 05:24 -31.77625 114.46562 19228 ft 383 kts 81°
2026-04-27 05:24 -31.77439 114.49685 18804 ft 382 kts 82°
2026-04-27 05:25 -31.77254 114.52787 18384 ft 380 kts 82°
2026-04-27 05:25 -31.77069 114.55878 17965 ft 378 kts 82°
2026-04-27 05:25 -31.76884 114.58943 17548 ft 376 kts 82°
2026-04-27 05:25 -31.76699 114.62004 17132 ft 374 kts 82°
2026-04-27 05:26 -31.76515 114.65044 16717 ft 371 kts 82°
2026-04-27 05:26 -31.76330 114.68070 16308 ft 369 kts 82°
2026-04-27 05:26 -31.76148 114.71062 15895 ft 367 kts 82°
2026-04-27 05:26 -31.75965 114.74045 15488 ft 364 kts 82°
2026-04-27 05:27 -31.75782 114.77000 15083 ft 362 kts 82°
2026-04-27 05:27 -31.75603 114.79902 14682 ft 360 kts 82°
2026-04-27 05:27 -31.75422 114.82823 14283 ft 357 kts 82°
2026-04-27 05:27 -31.75241 114.85725 13879 ft 355 kts 82°
2026-04-27 05:28 -31.75061 114.88613 13478 ft 354 kts 82°
2026-04-27 05:28 -31.75087 114.91504 13232 ft 355 kts 94°
2026-04-27 05:28 -31.75496 114.94366 12877 ft 354 kts 99°
2026-04-27 05:28 -31.75989 114.97195 12486 ft 353 kts 99°
2026-04-27 05:29 -31.76484 115.00008 12079 ft 351 kts 99°
2026-04-27 05:29 -31.76971 115.02808 11677 ft 349 kts 99°
2026-04-27 05:29 -31.77451 115.05591 11276 ft 346 kts 98°
2026-04-27 05:29 -31.77925 115.08354 10877 ft 344 kts 98°
2026-04-27 05:30 -31.78392 115.11094 10479 ft 341 kts 98°
2026-04-27 05:30 -31.78854 115.13805 10224 ft 332 kts 98°
2026-04-27 05:30 -31.79298 115.16414 10106 ft 319 kts 98°
2026-04-27 05:30 -31.79725 115.18924 9986 ft 308 kts 97°
2026-04-27 05:31 -31.80143 115.21395 9709 ft 313 kts 97°
2026-04-27 05:31 -31.80568 115.23940 9418 ft 320 kts 97°
2026-04-27 05:31 -31.80995 115.26476 9069 ft 319 kts 97°
2026-04-27 05:31 -31.81459 115.29024 8722 ft 319 kts 100°
2026-04-27 05:32 -31.82025 115.31427 8387 ft 319 kts 102°
2026-04-27 05:32 -31.82641 115.33927 8041 ft 317 kts 102°
2026-04-27 05:32 -31.83243 115.36416 7705 ft 316 kts 102°
2026-04-27 05:32 -31.83834 115.38899 7357 ft 314 kts 101°
2026-04-27 05:33 -31.84417 115.41371 7015 ft 313 kts 101°
2026-04-27 05:33 -31.84994 115.43833 6676 ft 311 kts 101°
2026-04-27 05:33 -31.85564 115.46279 6341 ft 309 kts 101°
2026-04-27 05:33 -31.86131 115.48715 6000 ft 308 kts 100°
2026-04-27 05:34 -31.86692 115.51140 5787 ft 307 kts 100°
2026-04-27 05:34 -31.87030 115.53580 5624 ft 299 kts 85°
2026-04-27 05:34 -31.86989 115.56001 5441 ft 294 kts 81°
2026-04-27 05:34 -31.86876 115.58399 5268 ft 292 kts 80°
2026-04-27 05:35 -31.86763 115.60769 5083 ft 289 kts 80°
2026-04-27 05:35 -31.86654 115.63124 4909 ft 287 kts 81°
2026-04-27 05:35 -31.86550 115.65430 4737 ft 285 kts 81°
2026-04-27 05:35 -31.86448 115.67746 4568 ft 282 kts 81°
2026-04-27 05:36 -31.86345 115.70047 4388 ft 281 kts 81°
2026-04-27 05:36 -31.86248 115.72337 4222 ft 279 kts 81°
2026-04-27 05:36 -31.86147 115.74604 4050 ft 276 kts 81°
2026-04-27 05:36 -31.86048 115.76844 3887 ft 273 kts 81°
2026-04-27 05:37 -31.85945 115.79057 3717 ft 269 kts 80°
2026-04-27 05:37 -31.85538 115.81157 3560 ft 259 kts 59°
2026-04-27 05:37 -31.84525 115.82832 3399 ft 248 kts 44°
2026-04-27 05:37 -31.83415 115.84368 3250 ft 246 kts 44°
2026-04-27 05:38 -31.82314 115.85918 3104 ft 247 kts 48°
2026-04-27 05:38 -31.81372 115.87574 2989 ft 239 kts 55°
2026-04-27 05:38 -31.80647 115.89277 2884 ft 228 kts 62°
2026-04-27 05:38 -31.80117 115.90979 2779 ft 216 kts 69°
2026-04-27 05:39 -31.79763 115.92656 2681 ft 206 kts 75°
2026-04-27 05:39 -31.79566 115.94277 2584 ft 195 kts 81°
2026-04-27 05:39 -31.79676 115.95821 2503 ft 188 kts 104°
2026-04-27 05:39 -31.80384 115.97102 2482 ft 186 kts 134°
2026-04-27 05:40 -31.81079 115.97696 2534 ft 190 kts 142°
2026-04-27 05:40 -31.82215 115.98495 2461 ft 186 kts 144°
2026-04-27 05:40 -31.83323 115.99237 2280 ft 179 kts 145°
2026-04-27 05:40 -31.84535 115.99487 1957 ft 185 kts 189°
2026-04-27 05:41 -31.85673 115.98820 1579 ft 180 kts 211°
2026-04-27 05:41 -31.86858 115.98494 1312 ft 169 kts 191°
2026-04-27 05:41 -31.87977 115.98266 1086 ft 158 kts 194°
2026-04-27 05:41 -31.89014 115.97974 872 ft 149 kts 197°
2026-04-27 05:42 -31.89969 115.97690 674 ft 140 kts 195°
2026-04-27 05:42 -31.90906 115.97420 499 ft 133 kts 195°
2026-04-27 05:42 -31.91807 115.97166 312 ft 134 kts 194°
2026-04-27 05:42 -31.92713 115.96901 137 ft 135 kts 195°
2026-04-27 05:43 -31.93544 115.96649 64 ft 114 kts 194°
2026-04-27 05:43 -31.94135 115.96476 77 ft 52 kts 194°
2026-04-27 05:43 -31.94323 115.96421 75 ft 13 kts 194°
2026-04-27 05:43 -31.94414 115.96409 75 ft 13 kts 165°
2026-04-27 05:44 -31.94471 115.96489 74 ft 14 kts 107°
2026-04-27 05:44 -31.94495 115.96600 72 ft 11 kts 104°
2026-04-27 05:44 -31.94497 115.96612 74 ft 0 kts 104°
2026-04-27 05:45 -31.94498 115.96616 63 ft 3 kts 104°
2026-04-27 05:45 -31.94508 115.96668 69 ft 10 kts 94°
2026-04-27 05:45 -31.94453 115.96733 74 ft 15 kts 16°
2026-04-27 05:45 -31.94335 115.96768 63 ft 19 kts 14°
2026-04-27 05:46 -31.94221 115.96801 72 ft 16 kts 14°
2026-04-27 05:46 -31.94109 115.96833 71 ft 18 kts 14°
2026-04-27 05:46 -31.93987 115.96869 64 ft 16 kts 14°
2026-04-27 05:46 -31.93918 115.96948 74 ft 15 kts 90°
2026-04-27 05:47 -31.93941 115.97070 74 ft 13 kts 104°
2026-04-27 05:47 -31.93961 115.97164 71 ft 13 kts 104°
2026-04-27 05:47 -31.93962 115.97252 69 ft 9 kts 113°
2026-04-27 05:47 -31.94009 115.97292 72 ft 8 kts 152°
2026-04-27 05:48 -31.94029 115.97305 74 ft 1 kts 152°
2026-04-27 05:48 -31.94030 115.97305 74 ft 0 kts 152°
2026-04-27 05:48 -31.94037 115.97309 67 ft 1 kts 152°
2026-04-27 05:48 -31.94038 115.97310 74 ft 0 kts 152°